Year,Month,Day,Hour,Minute,Value (Times are PST for temperature in C)
2021,06,25,00,00,16.70
2021,06,25,00,01,16.60
2021,06,25,00,02,16.60
2021,06,25,00,03,16.60
2021,06,25,00,04,16.60
2021,06,25,00,05,16.60
2021,06,25,00,06,16.60
2021,06,25,00,07,16.60
2021,06,25,00,08,16.60
2021,06,25,00,09,16.50
2021,06,25,00,10,16.50
2021,06,25,00,11,16.50
2021,06,25,00,12,16.50
2021,06,25,00,13,16.50
2021,06,25,00,14,16.40
2021,06,25,00,15,16.40
2021,06,25,00,16,16.40
2021,06,25,00,17,16.40
2021,06,25,00,18,16.40
2021,06,25,00,19,16.40
2021,06,25,00,20,16.40
2021,06,25,00,21,16.40
2021,06,25,00,22,16.30
2021,06,25,00,23,16.30
2021,06,25,00,24,16.30
2021,06,25,00,25,16.30
2021,06,25,00,26,16.30
2021,06,25,00,27,16.30
2021,06,25,00,28,16.30
2021,06,25,00,29,16.30
2021,06,25,00,30,16.20
2021,06,25,00,31,16.20
2021,06,25,00,32,16.20
2021,06,25,00,33,16.20
2021,06,25,00,34,16.20
2021,06,25,00,35,16.20
2021,06,25,00,36,16.20
2021,06,25,00,37,16.10
2021,06,25,00,38,16.20
2021,06,25,00,39,16.10
2021,06,25,00,40,16.20
2021,06,25,00,41,16.20
2021,06,25,00,42,16.20
2021,06,25,00,43,16.20
2021,06,25,00,44,16.20
2021,06,25,00,45,16.20
2021,06,25,00,46,16.20
2021,06,25,00,47,16.20
2021,06,25,00,48,16.20
2021,06,25,00,49,16.20
2021,06,25,00,50,16.20
2021,06,25,00,51,16.20
2021,06,25,00,52,16.20
2021,06,25,00,53,16.20
2021,06,25,00,54,16.20
2021,06,25,00,55,16.20
2021,06,25,00,56,16.10
2021,06,25,00,57,16.10
2021,06,25,00,58,16.10
2021,06,25,00,59,16.10
2021,06,25,01,00,16.10
2021,06,25,01,01,16.10
2021,06,25,01,02,16.10
2021,06,25,01,03,16.10
2021,06,25,01,04,16.10
2021,06,25,01,05,16.10
2021,06,25,01,06,16.10
2021,06,25,01,07,16.10
2021,06,25,01,08,16.10
2021,06,25,01,09,16.10
2021,06,25,01,10,16.10
2021,06,25,01,11,16.10
2021,06,25,01,12,16.10
2021,06,25,01,13,16.10
2021,06,25,01,14,16.10
2021,06,25,01,15,16.00
2021,06,25,01,16,16.00
2021,06,25,01,17,16.00
2021,06,25,01,18,16.00
2021,06,25,01,19,16.00
2021,06,25,01,20,16.00
2021,06,25,01,21,16.00
2021,06,25,01,22,16.00
2021,06,25,01,23,15.90
2021,06,25,01,24,15.90
2021,06,25,01,25,15.90
2021,06,25,01,26,15.90
2021,06,25,01,27,15.90
2021,06,25,01,28,15.90
2021,06,25,01,29,15.90
2021,06,25,01,30,15.90
2021,06,25,01,31,15.90
2021,06,25,01,32,15.90
2021,06,25,01,33,15.90
2021,06,25,01,34,15.90
2021,06,25,01,35,15.90
2021,06,25,01,36,16.00
2021,06,25,01,37,16.00
2021,06,25,01,38,16.00
2021,06,25,01,39,16.00
2021,06,25,01,40,16.00
2021,06,25,01,41,16.00
2021,06,25,01,42,16.00
2021,06,25,01,43,16.00
2021,06,25,01,44,16.00
2021,06,25,01,45,15.90
2021,06,25,01,46,15.90
2021,06,25,01,47,16.00
2021,06,25,01,48,16.00
2021,06,25,01,49,16.00
2021,06,25,01,50,16.00
2021,06,25,01,51,16.00
2021,06,25,01,52,16.00
2021,06,25,01,53,16.00
2021,06,25,01,54,16.00
2021,06,25,01,55,16.00
2021,06,25,01,56,15.90
2021,06,25,01,57,15.90
2021,06,25,01,58,15.90
2021,06,25,01,59,15.90
2021,06,25,02,00,15.90
2021,06,25,02,01,15.90
2021,06,25,02,02,15.90
2021,06,25,02,03,15.90
2021,06,25,02,04,15.80
2021,06,25,02,05,15.80
2021,06,25,02,06,15.80
2021,06,25,02,07,15.80
2021,06,25,02,08,15.80
2021,06,25,02,09,15.80
2021,06,25,02,10,15.80
2021,06,25,02,11,15.80
2021,06,25,02,12,15.80
2021,06,25,02,13,15.80
2021,06,25,02,14,15.80
2021,06,25,02,15,15.70
2021,06,25,02,16,15.70
2021,06,25,02,17,15.70
2021,06,25,02,18,15.70
2021,06,25,02,19,15.70
2021,06,25,02,20,15.70
2021,06,25,02,21,15.70
2021,06,25,02,22,15.70
2021,06,25,02,23,15.70
2021,06,25,02,24,15.70
2021,06,25,02,25,15.80
2021,06,25,02,26,15.80
2021,06,25,02,27,15.80
2021,06,25,02,28,15.90
2021,06,25,02,29,15.90
2021,06,25,02,30,16.00
2021,06,25,02,31,16.00
2021,06,25,02,32,16.10
2021,06,25,02,33,16.30
2021,06,25,02,34,16.30
2021,06,25,02,35,16.40
2021,06,25,02,36,16.40
2021,06,25,02,37,16.50
2021,06,25,02,38,16.70
2021,06,25,02,39,16.80
2021,06,25,02,40,16.90
2021,06,25,02,41,17.00
2021,06,25,02,42,17.00
2021,06,25,02,43,17.10
2021,06,25,02,44,17.20
2021,06,25,02,45,17.30
2021,06,25,02,46,17.40
2021,06,25,02,47,17.50
2021,06,25,02,48,17.60
2021,06,25,02,49,17.80
2021,06,25,02,50,17.90
2021,06,25,02,51,18.00
2021,06,25,02,52,18.10
2021,06,25,02,53,18.20
2021,06,25,02,54,18.30
2021,06,25,02,55,18.40
2021,06,25,02,56,18.50
2021,06,25,02,57,18.60
2021,06,25,02,58,18.70
2021,06,25,02,59,18.70
2021,06,25,03,00,18.80
2021,06,25,03,01,18.80
2021,06,25,03,02,18.90
2021,06,25,03,03,18.90
2021,06,25,03,04,18.90
2021,06,25,03,05,18.90
2021,06,25,03,06,18.90
2021,06,25,03,07,19.00
2021,06,25,03,08,19.10
2021,06,25,03,09,19.10
2021,06,25,03,10,19.10
2021,06,25,03,11,19.10
2021,06,25,03,12,19.20
2021,06,25,03,13,19.20
2021,06,25,03,14,19.20
2021,06,25,03,15,19.30
2021,06,25,03,16,19.40
2021,06,25,03,17,19.50
2021,06,25,03,18,19.60
2021,06,25,03,19,19.60
2021,06,25,03,20,19.60
2021,06,25,03,21,19.60
2021,06,25,03,22,19.60
2021,06,25,03,23,19.60
2021,06,25,03,24,19.60
2021,06,25,03,25,19.50
2021,06,25,03,26,19.50
2021,06,25,03,27,19.50
2021,06,25,03,28,19.40
2021,06,25,03,29,19.40
2021,06,25,03,30,19.40
2021,06,25,03,31,19.40
2021,06,25,03,32,19.30
2021,06,25,03,33,19.30
2021,06,25,03,34,19.30
2021,06,25,03,35,19.30
2021,06,25,03,36,19.30
2021,06,25,03,37,19.20
2021,06,25,03,38,19.20
2021,06,25,03,39,19.30
2021,06,25,03,40,19.40
2021,06,25,03,41,19.40
2021,06,25,03,42,19.40
2021,06,25,03,43,19.50
2021,06,25,03,44,19.60
2021,06,25,03,45,19.60
2021,06,25,03,46,19.60
2021,06,25,03,47,19.60
2021,06,25,03,48,19.60
2021,06,25,03,49,19.60
2021,06,25,03,50,19.50
2021,06,25,03,51,19.50
2021,06,25,03,52,19.50
2021,06,25,03,53,19.50
2021,06,25,03,54,19.50
2021,06,25,03,55,19.50
2021,06,25,03,56,19.50
2021,06,25,03,57,19.40
2021,06,25,03,58,19.40
2021,06,25,03,59,19.40
2021,06,25,04,00,19.40
2021,06,25,04,01,19.40
2021,06,25,04,02,19.40
2021,06,25,04,03,19.40
2021,06,25,04,04,19.40
2021,06,25,04,05,19.40
2021,06,25,04,06,19.40
2021,06,25,04,07,19.40
2021,06,25,04,08,19.50
2021,06,25,04,09,19.50
2021,06,25,04,10,19.50
2021,06,25,04,11,19.50
2021,06,25,04,12,19.50
2021,06,25,04,13,19.50
2021,06,25,04,14,19.60
2021,06,25,04,15,19.60
2021,06,25,04,16,19.70
2021,06,25,04,17,19.80
2021,06,25,04,18,19.90
2021,06,25,04,19,20.00
2021,06,25,04,20,20.00
2021,06,25,04,21,20.00
2021,06,25,04,22,20.00
2021,06,25,04,23,20.00
2021,06,25,04,24,20.00
2021,06,25,04,25,20.00
2021,06,25,04,26,20.00
2021,06,25,04,27,20.00
2021,06,25,04,28,20.10
2021,06,25,04,29,20.00
2021,06,25,04,30,20.10
2021,06,25,04,31,20.10
2021,06,25,04,32,20.20
2021,06,25,04,33,20.20
2021,06,25,04,34,20.20
2021,06,25,04,35,20.20
2021,06,25,04,36,20.20
2021,06,25,04,37,20.30
2021,06,25,04,38,20.30
2021,06,25,04,39,20.30
2021,06,25,04,40,20.30
2021,06,25,04,41,20.30
2021,06,25,04,42,20.30
2021,06,25,04,43,20.30
2021,06,25,04,44,20.40
2021,06,25,04,45,20.40
2021,06,25,04,46,20.40
2021,06,25,04,47,20.40
2021,06,25,04,48,20.40
2021,06,25,04,49,20.40
2021,06,25,04,50,20.30
2021,06,25,04,51,20.30
2021,06,25,04,52,20.30
2021,06,25,04,53,20.30
2021,06,25,04,54,20.20
2021,06,25,04,55,20.10
2021,06,25,04,56,20.10
2021,06,25,04,57,20.10
2021,06,25,04,58,20.00
2021,06,25,04,59,19.90
2021,06,25,05,00,19.90
2021,06,25,05,01,19.90
2021,06,25,05,02,19.90
2021,06,25,05,03,19.80
2021,06,25,05,04,19.80
2021,06,25,05,05,19.80
2021,06,25,05,06,19.80
2021,06,25,05,07,19.80
2021,06,25,05,08,19.80
2021,06,25,05,09,19.80
2021,06,25,05,10,19.80
2021,06,25,05,11,19.90
2021,06,25,05,12,19.90
2021,06,25,05,13,19.90
2021,06,25,05,14,19.90
2021,06,25,05,15,19.80
2021,06,25,05,16,19.80
2021,06,25,05,17,19.80
2021,06,25,05,18,19.80
2021,06,25,05,19,19.80
2021,06,25,05,20,19.70
2021,06,25,05,21,19.70
2021,06,25,05,22,19.60
2021,06,25,05,23,19.60
2021,06,25,05,24,19.60
2021,06,25,05,25,19.60
2021,06,25,05,26,19.60
2021,06,25,05,27,19.50
2021,06,25,05,28,19.50
2021,06,25,05,29,19.50
2021,06,25,05,30,19.50
2021,06,25,05,31,19.60
2021,06,25,05,32,19.60
2021,06,25,05,33,19.60
2021,06,25,05,34,19.60
2021,06,25,05,35,19.60
2021,06,25,05,36,19.60
2021,06,25,05,37,19.60
2021,06,25,05,38,19.70
2021,06,25,05,39,19.70
2021,06,25,05,40,19.70
2021,06,25,05,41,19.80
2021,06,25,05,42,19.80
2021,06,25,05,43,19.80
2021,06,25,05,44,19.80
2021,06,25,05,45,19.80
2021,06,25,05,46,19.80
2021,06,25,05,47,19.80
2021,06,25,05,48,19.70
2021,06,25,05,49,19.70
2021,06,25,05,50,19.80
2021,06,25,05,51,19.80
2021,06,25,05,52,19.80
2021,06,25,05,53,19.80
2021,06,25,05,54,19.80
2021,06,25,05,55,19.80
2021,06,25,05,56,19.80
2021,06,25,05,57,19.90
2021,06,25,05,58,20.00
2021,06,25,05,59,20.10
2021,06,25,06,00,20.20
2021,06,25,06,01,20.20
2021,06,25,06,02,20.20
2021,06,25,06,03,20.30
2021,06,25,06,04,20.30
2021,06,25,06,05,20.40
2021,06,25,06,06,20.40
2021,06,25,06,07,20.50
2021,06,25,06,08,20.50
2021,06,25,06,09,20.60
2021,06,25,06,10,20.60
2021,06,25,06,11,20.70
2021,06,25,06,12,20.80
2021,06,25,06,13,20.80
2021,06,25,06,14,20.80
2021,06,25,06,15,20.90
2021,06,25,06,16,21.00
2021,06,25,06,17,21.00
2021,06,25,06,18,21.00
2021,06,25,06,19,21.10
2021,06,25,06,20,21.10
2021,06,25,06,21,21.10
2021,06,25,06,22,21.20
2021,06,25,06,23,21.20
2021,06,25,06,24,21.20
2021,06,25,06,25,21.20
2021,06,25,06,26,21.30
2021,06,25,06,27,21.40
2021,06,25,06,28,21.40
2021,06,25,06,29,21.40
2021,06,25,06,30,21.40
2021,06,25,06,31,21.40
2021,06,25,06,32,21.50
2021,06,25,06,33,21.50
2021,06,25,06,34,21.60
2021,06,25,06,35,21.60
2021,06,25,06,36,21.70
2021,06,25,06,37,21.70
2021,06,25,06,38,21.70
2021,06,25,06,39,21.70
2021,06,25,06,40,21.70
2021,06,25,06,41,21.80
2021,06,25,06,42,21.70
2021,06,25,06,43,21.70
2021,06,25,06,44,21.70
2021,06,25,06,45,21.80
2021,06,25,06,46,21.80
2021,06,25,06,47,21.80
2021,06,25,06,48,21.80
2021,06,25,06,49,21.80
2021,06,25,06,50,21.80
2021,06,25,06,51,21.90
2021,06,25,06,52,21.90
2021,06,25,06,53,21.90
2021,06,25,06,54,21.90
2021,06,25,06,55,21.90
2021,06,25,06,56,21.90
2021,06,25,06,57,21.90
2021,06,25,06,58,21.90
2021,06,25,06,59,22.00
2021,06,25,07,00,22.00
2021,06,25,07,01,22.00
2021,06,25,07,02,22.00
2021,06,25,07,03,22.10
2021,06,25,07,04,22.10
2021,06,25,07,05,22.20
2021,06,25,07,06,22.20
2021,06,25,07,07,22.20
2021,06,25,07,08,22.20
2021,06,25,07,09,22.20
2021,06,25,07,10,22.30
2021,06,25,07,11,22.30
2021,06,25,07,12,22.30
2021,06,25,07,13,22.40
2021,06,25,07,14,22.40
2021,06,25,07,15,22.40
2021,06,25,07,16,22.40
2021,06,25,07,17,22.50
2021,06,25,07,18,22.60
2021,06,25,07,19,22.60
2021,06,25,07,20,22.70
2021,06,25,07,21,22.80
2021,06,25,07,22,22.80
2021,06,25,07,23,22.90
2021,06,25,07,24,22.90
2021,06,25,07,25,22.90
2021,06,25,07,26,22.90
2021,06,25,07,27,22.90
2021,06,25,07,28,23.00
2021,06,25,07,29,23.00
2021,06,25,07,30,23.10
2021,06,25,07,31,23.20
2021,06,25,07,32,23.20
2021,06,25,07,33,23.20
2021,06,25,07,34,23.20
2021,06,25,07,35,23.20
2021,06,25,07,36,23.30
2021,06,25,07,37,23.30
2021,06,25,07,38,23.30
2021,06,25,07,39,23.40
2021,06,25,07,40,23.40
2021,06,25,07,41,23.40
2021,06,25,07,42,23.50
2021,06,25,07,43,23.50
2021,06,25,07,44,23.60
2021,06,25,07,45,23.60
2021,06,25,07,46,23.60
2021,06,25,07,47,23.60
2021,06,25,07,48,23.70
2021,06,25,07,49,23.70
2021,06,25,07,50,23.70
2021,06,25,07,51,23.70
2021,06,25,07,52,23.70
2021,06,25,07,53,23.70
2021,06,25,07,54,23.70
2021,06,25,07,55,23.70
2021,06,25,07,56,23.60
2021,06,25,07,57,23.60
2021,06,25,07,58,23.50
2021,06,25,07,59,23.50
2021,06,25,08,00,23.40
2021,06,25,08,01,23.40
2021,06,25,08,02,23.40
2021,06,25,08,03,23.40
2021,06,25,08,04,23.40
2021,06,25,08,05,23.40
2021,06,25,08,06,23.40
2021,06,25,08,07,23.40
2021,06,25,08,08,23.50
2021,06,25,08,09,23.50
2021,06,25,08,10,23.60
2021,06,25,08,11,23.60
2021,06,25,08,12,23.70
2021,06,25,08,13,23.80
2021,06,25,08,14,23.80
2021,06,25,08,15,23.90
2021,06,25,08,16,24.00
2021,06,25,08,17,24.10
2021,06,25,08,18,24.20
2021,06,25,08,19,24.20
2021,06,25,08,20,24.30
2021,06,25,08,21,24.30
2021,06,25,08,22,24.30
2021,06,25,08,23,24.30
2021,06,25,08,24,24.30
2021,06,25,08,25,24.30
2021,06,25,08,26,24.30
2021,06,25,08,27,24.30
2021,06,25,08,28,24.20
2021,06,25,08,29,24.20
2021,06,25,08,30,24.20
2021,06,25,08,31,24.20
2021,06,25,08,32,24.10
2021,06,25,08,33,24.10
2021,06,25,08,34,24.10
2021,06,25,08,35,24.10
2021,06,25,08,36,24.10
2021,06,25,08,37,24.20
2021,06,25,08,38,24.20
2021,06,25,08,39,24.30
2021,06,25,08,40,24.30
2021,06,25,08,41,24.40
2021,06,25,08,42,24.40
2021,06,25,08,43,24.50
2021,06,25,08,44,24.60
2021,06,25,08,45,24.60
2021,06,25,08,46,24.60
2021,06,25,08,47,24.70
2021,06,25,08,48,24.70
2021,06,25,08,49,24.70
2021,06,25,08,50,24.70
2021,06,25,08,51,24.70
2021,06,25,08,52,24.70
2021,06,25,08,53,24.70
2021,06,25,08,54,24.70
2021,06,25,08,55,24.70
2021,06,25,08,56,24.80
2021,06,25,08,57,24.80
2021,06,25,08,58,24.90
2021,06,25,08,59,24.90
2021,06,25,09,00,25.00
2021,06,25,09,01,25.00
2021,06,25,09,02,25.10
2021,06,25,09,03,25.20
2021,06,25,09,04,25.30
2021,06,25,09,05,25.40
2021,06,25,09,06,25.40
2021,06,25,09,07,25.50
2021,06,25,09,08,25.50
2021,06,25,09,09,25.40
2021,06,25,09,10,25.40
2021,06,25,09,11,25.40
2021,06,25,09,12,25.40
2021,06,25,09,13,25.30
2021,06,25,09,14,25.30
2021,06,25,09,15,25.30
2021,06,25,09,16,25.30
2021,06,25,09,17,25.30
2021,06,25,09,18,25.30
2021,06,25,09,19,25.30
2021,06,25,09,20,25.30
2021,06,25,09,21,25.30
2021,06,25,09,22,25.30
2021,06,25,09,23,25.30
2021,06,25,09,24,25.40
2021,06,25,09,25,25.40
2021,06,25,09,26,25.50
2021,06,25,09,27,25.50
2021,06,25,09,28,25.60
2021,06,25,09,29,25.80
2021,06,25,09,30,25.90
2021,06,25,09,31,26.00
2021,06,25,09,32,26.20
2021,06,25,09,33,26.20
2021,06,25,09,34,26.30
2021,06,25,09,35,26.30
2021,06,25,09,36,26.30
2021,06,25,09,37,26.30
2021,06,25,09,38,26.30
2021,06,25,09,39,26.40
2021,06,25,09,40,26.50
2021,06,25,09,41,26.60
2021,06,25,09,42,26.70
2021,06,25,09,43,26.80
2021,06,25,09,44,26.90
2021,06,25,09,45,26.90
2021,06,25,09,46,26.90
2021,06,25,09,47,27.00
2021,06,25,09,48,27.00
2021,06,25,09,49,27.10
2021,06,25,09,50,27.10
2021,06,25,09,51,27.20
2021,06,25,09,52,27.20
2021,06,25,09,53,27.20
2021,06,25,09,54,27.20
2021,06,25,09,55,27.20
2021,06,25,09,56,27.20
2021,06,25,09,57,27.30
2021,06,25,09,58,27.30
2021,06,25,09,59,27.30
2021,06,25,10,00,27.30
2021,06,25,10,01,27.20
2021,06,25,10,02,27.10
2021,06,25,10,03,27.10
2021,06,25,10,04,27.10
2021,06,25,10,05,27.10
2021,06,25,10,06,27.10
2021,06,25,10,07,27.10
2021,06,25,10,08,27.10
2021,06,25,10,09,27.10
2021,06,25,10,10,27.20
2021,06,25,10,11,27.20
2021,06,25,10,12,27.30
2021,06,25,10,13,27.30
2021,06,25,10,14,27.20
2021,06,25,10,15,27.20
2021,06,25,10,16,27.10
2021,06,25,10,17,27.00
2021,06,25,10,18,27.00
2021,06,25,10,19,27.00
2021,06,25,10,20,27.10
2021,06,25,10,21,27.20
2021,06,25,10,22,27.30
2021,06,25,10,23,27.40
2021,06,25,10,24,27.40
2021,06,25,10,25,27.30
2021,06,25,10,26,27.30
2021,06,25,10,27,27.30
2021,06,25,10,28,27.20
2021,06,25,10,29,27.20
2021,06,25,10,30,27.20
2021,06,25,10,31,27.20
2021,06,25,10,32,27.30
2021,06,25,10,33,27.30
2021,06,25,10,34,27.30
2021,06,25,10,35,27.40
2021,06,25,10,36,27.40
2021,06,25,10,37,27.40
2021,06,25,10,38,27.50
2021,06,25,10,39,27.50
2021,06,25,10,40,27.60
2021,06,25,10,41,27.70
2021,06,25,10,42,27.70
2021,06,25,10,43,27.80
2021,06,25,10,44,27.90
2021,06,25,10,45,28.00
2021,06,25,10,46,28.10
2021,06,25,10,47,28.20
2021,06,25,10,48,28.30
2021,06,25,10,49,28.40
2021,06,25,10,50,28.40
2021,06,25,10,51,28.40
2021,06,25,10,52,28.50
2021,06,25,10,53,28.50
2021,06,25,10,54,28.60
2021,06,25,10,55,28.70
2021,06,25,10,56,28.70
2021,06,25,10,57,28.80
2021,06,25,10,58,28.90
2021,06,25,10,59,28.90
2021,06,25,11,00,28.90
2021,06,25,11,01,28.80
2021,06,25,11,02,28.80
2021,06,25,11,03,28.90
2021,06,25,11,04,28.90
2021,06,25,11,05,29.00
2021,06,25,11,06,29.00
2021,06,25,11,07,29.10
2021,06,25,11,08,29.20
2021,06,25,11,09,29.30
2021,06,25,11,10,29.40
2021,06,25,11,11,29.50
2021,06,25,11,12,29.50
2021,06,25,11,13,29.60
2021,06,25,11,14,29.60
2021,06,25,11,15,29.70
2021,06,25,11,16,29.80
2021,06,25,11,17,29.80
2021,06,25,11,18,29.80
2021,06,25,11,19,29.90
2021,06,25,11,20,29.90
2021,06,25,11,21,29.90
2021,06,25,11,22,29.80
2021,06,25,11,23,29.70
2021,06,25,11,24,29.60
2021,06,25,11,25,29.60
2021,06,25,11,26,29.60
2021,06,25,11,27,29.50
2021,06,25,11,28,29.40
2021,06,25,11,29,29.30
2021,06,25,11,30,29.30
2021,06,25,11,31,29.20
2021,06,25,11,32,29.20
2021,06,25,11,33,29.10
2021,06,25,11,34,29.00
2021,06,25,11,35,28.90
2021,06,25,11,36,28.80
2021,06,25,11,37,28.70
2021,06,25,11,38,28.70
2021,06,25,11,39,28.60
2021,06,25,11,40,28.60
2021,06,25,11,41,28.60
2021,06,25,11,42,28.70
2021,06,25,11,43,28.80
2021,06,25,11,44,28.90
2021,06,25,11,45,28.90
2021,06,25,11,46,28.90
2021,06,25,11,47,28.90
2021,06,25,11,48,28.90
2021,06,25,11,49,28.90
2021,06,25,11,50,29.00
2021,06,25,11,51,29.10
2021,06,25,11,52,29.20
2021,06,25,11,53,29.30
2021,06,25,11,54,29.40
2021,06,25,11,55,29.40
2021,06,25,11,56,29.40
2021,06,25,11,57,29.40
2021,06,25,11,58,29.50
2021,06,25,11,59,29.60
2021,06,25,12,00,29.70
2021,06,25,12,01,29.80
2021,06,25,12,02,29.90
2021,06,25,12,03,29.90
2021,06,25,12,04,30.00
2021,06,25,12,05,30.10
2021,06,25,12,06,30.10
2021,06,25,12,07,30.20
2021,06,25,12,08,30.20
2021,06,25,12,09,30.20
2021,06,25,12,10,30.20
2021,06,25,12,11,30.20
2021,06,25,12,12,30.20
2021,06,25,12,13,30.10
2021,06,25,12,14,30.10
2021,06,25,12,15,30.00
2021,06,25,12,16,30.00
2021,06,25,12,17,30.00
2021,06,25,12,18,30.00
2021,06,25,12,19,30.00
2021,06,25,12,20,30.10
2021,06,25,12,21,30.10
2021,06,25,12,22,30.00
2021,06,25,12,23,30.00
2021,06,25,12,24,30.10
2021,06,25,12,25,30.20
2021,06,25,12,26,30.30
2021,06,25,12,27,30.30
2021,06,25,12,28,30.30
2021,06,25,12,29,30.30
2021,06,25,12,30,30.30
2021,06,25,12,31,30.40
2021,06,25,12,32,30.40
2021,06,25,12,33,30.40
2021,06,25,12,34,30.40
2021,06,25,12,35,30.40
2021,06,25,12,36,30.40
2021,06,25,12,37,30.50
2021,06,25,12,38,30.40
2021,06,25,12,39,30.40
2021,06,25,12,40,30.30
2021,06,25,12,41,30.30
2021,06,25,12,42,30.30
2021,06,25,12,43,30.30
2021,06,25,12,44,30.30
2021,06,25,12,45,30.30
2021,06,25,12,46,30.40
2021,06,25,12,47,30.40
2021,06,25,12,48,30.50
2021,06,25,12,49,30.60
2021,06,25,12,50,30.60
2021,06,25,12,51,30.70
2021,06,25,12,52,30.70
2021,06,25,12,53,30.70
2021,06,25,12,54,30.70
2021,06,25,12,55,30.70
2021,06,25,12,56,30.70
2021,06,25,12,57,30.70
2021,06,25,12,58,30.60
2021,06,25,12,59,30.60
2021,06,25,13,00,30.60
2021,06,25,13,01,30.70
2021,06,25,13,02,30.70
2021,06,25,13,03,30.80
2021,06,25,13,04,30.80
2021,06,25,13,05,30.80
2021,06,25,13,06,30.80
2021,06,25,13,07,30.80
2021,06,25,13,08,30.70
2021,06,25,13,09,30.70
2021,06,25,13,10,30.50
2021,06,25,13,11,30.40
2021,06,25,13,12,30.30
2021,06,25,13,13,30.30
2021,06,25,13,14,30.30
2021,06,25,13,15,30.40
2021,06,25,13,16,30.50
2021,06,25,13,17,30.60
2021,06,25,13,18,30.70
2021,06,25,13,19,30.80
2021,06,25,13,20,30.80
2021,06,25,13,21,30.80
2021,06,25,13,22,30.80
2021,06,25,13,23,30.70
2021,06,25,13,24,30.70
2021,06,25,13,25,30.70
2021,06,25,13,26,30.80
2021,06,25,13,27,30.80
2021,06,25,13,28,30.80
2021,06,25,13,29,30.90
2021,06,25,13,30,30.90
2021,06,25,13,31,31.00
2021,06,25,13,32,31.10
2021,06,25,13,33,31.20
2021,06,25,13,34,31.30
2021,06,25,13,35,31.40
2021,06,25,13,36,31.50
2021,06,25,13,37,31.60
2021,06,25,13,38,31.70
2021,06,25,13,39,31.70
2021,06,25,13,40,31.80
2021,06,25,13,41,31.80
2021,06,25,13,42,31.80
2021,06,25,13,43,31.80
2021,06,25,13,44,31.80
2021,06,25,13,45,31.80
2021,06,25,13,46,31.90
2021,06,25,13,47,31.90
2021,06,25,13,48,32.00
2021,06,25,13,49,32.10
2021,06,25,13,50,32.10
2021,06,25,13,51,32.10
2021,06,25,13,52,32.10
2021,06,25,13,53,32.10
2021,06,25,13,54,32.10
2021,06,25,13,55,32.20
2021,06,25,13,56,32.20
2021,06,25,13,57,32.20
2021,06,25,13,58,32.20
2021,06,25,13,59,32.20
2021,06,25,14,00,32.10
2021,06,25,14,01,32.10
2021,06,25,14,02,32.10
2021,06,25,14,03,32.10
2021,06,25,14,04,32.10
2021,06,25,14,05,32.10
2021,06,25,14,06,32.00
2021,06,25,14,07,32.00
2021,06,25,14,08,32.00
2021,06,25,14,09,31.90
2021,06,25,14,10,31.90
2021,06,25,14,11,31.90
2021,06,25,14,12,32.00
2021,06,25,14,13,32.10
2021,06,25,14,14,32.10
2021,06,25,14,15,32.10
2021,06,25,14,16,32.00
2021,06,25,14,17,32.00
2021,06,25,14,18,32.00
2021,06,25,14,19,32.10
2021,06,25,14,20,32.20
2021,06,25,14,21,32.20
2021,06,25,14,22,32.20
2021,06,25,14,23,32.30
2021,06,25,14,24,32.30
2021,06,25,14,25,32.30
2021,06,25,14,26,32.40
2021,06,25,14,27,32.40
2021,06,25,14,28,32.50
2021,06,25,14,29,32.60
2021,06,25,14,30,32.70
2021,06,25,14,31,32.70
2021,06,25,14,32,32.80
2021,06,25,14,33,32.80
2021,06,25,14,34,32.70
2021,06,25,14,35,32.70
2021,06,25,14,36,32.70
2021,06,25,14,37,32.80
2021,06,25,14,38,32.90
2021,06,25,14,39,32.90
2021,06,25,14,40,32.90
2021,06,25,14,41,32.90
2021,06,25,14,42,32.90
2021,06,25,14,43,32.90
2021,06,25,14,44,32.90
2021,06,25,14,45,32.90
2021,06,25,14,46,32.90
2021,06,25,14,47,32.90
2021,06,25,14,48,32.80
2021,06,25,14,49,32.80
2021,06,25,14,50,32.90
2021,06,25,14,51,32.90
2021,06,25,14,52,33.00
2021,06,25,14,53,33.00
2021,06,25,14,54,33.10
2021,06,25,14,55,33.20
2021,06,25,14,56,33.20
2021,06,25,14,57,33.00
2021,06,25,14,58,32.90
2021,06,25,14,59,32.80
2021,06,25,15,00,32.60
2021,06,25,15,01,32.40
2021,06,25,15,02,32.40
2021,06,25,15,03,32.40
2021,06,25,15,04,32.50
2021,06,25,15,05,32.60
2021,06,25,15,06,32.70
2021,06,25,15,07,32.80
2021,06,25,15,08,32.90
2021,06,25,15,09,33.00
2021,06,25,15,10,33.10
2021,06,25,15,11,33.20
2021,06,25,15,12,33.30
2021,06,25,15,13,33.30
2021,06,25,15,14,33.30
2021,06,25,15,15,33.20
2021,06,25,15,16,33.00
2021,06,25,15,17,32.90
2021,06,25,15,18,32.80
2021,06,25,15,19,32.70
2021,06,25,15,20,32.60
2021,06,25,15,21,32.50
2021,06,25,15,22,32.40
2021,06,25,15,23,32.30
2021,06,25,15,24,32.30
2021,06,25,15,25,32.30
2021,06,25,15,26,32.30
2021,06,25,15,27,32.40
2021,06,25,15,28,32.50
2021,06,25,15,29,32.60
2021,06,25,15,30,32.70
2021,06,25,15,31,32.80
2021,06,25,15,32,32.80
2021,06,25,15,33,32.90
2021,06,25,15,34,33.00
2021,06,25,15,35,33.10
2021,06,25,15,36,33.10
2021,06,25,15,37,33.10
2021,06,25,15,38,33.20
2021,06,25,15,39,33.20
2021,06,25,15,40,33.30
2021,06,25,15,41,33.30
2021,06,25,15,42,33.30
2021,06,25,15,43,33.30
2021,06,25,15,44,33.30
2021,06,25,15,45,33.20
2021,06,25,15,46,33.20
2021,06,25,15,47,33.20
2021,06,25,15,48,33.30
2021,06,25,15,49,33.40
2021,06,25,15,50,33.50
2021,06,25,15,51,33.60
2021,06,25,15,52,33.70
2021,06,25,15,53,33.80
2021,06,25,15,54,33.90
2021,06,25,15,55,33.90
2021,06,25,15,56,33.90
2021,06,25,15,57,33.90
2021,06,25,15,58,33.90
2021,06,25,15,59,33.90
2021,06,25,16,00,33.80
2021,06,25,16,01,33.80
2021,06,25,16,02,33.80
2021,06,25,16,03,33.80
2021,06,25,16,04,33.60
2021,06,25,16,05,33.50
2021,06,25,16,06,33.40
2021,06,25,16,07,33.40
2021,06,25,16,08,33.40
2021,06,25,16,09,33.40
2021,06,25,16,10,33.50
2021,06,25,16,11,33.50
2021,06,25,16,12,33.60
2021,06,25,16,13,33.60
2021,06,25,16,14,33.70
2021,06,25,16,15,33.70
2021,06,25,16,16,33.80
2021,06,25,16,17,33.80
2021,06,25,16,18,33.90
2021,06,25,16,19,33.90
2021,06,25,16,20,33.90
2021,06,25,16,21,33.90
2021,06,25,16,22,33.90
2021,06,25,16,23,33.90
2021,06,25,16,24,34.00
2021,06,25,16,25,34.00
2021,06,25,16,26,34.10
2021,06,25,16,27,34.20
2021,06,25,16,28,34.20
2021,06,25,16,29,34.10
2021,06,25,16,30,34.10
2021,06,25,16,31,34.00
2021,06,25,16,32,34.00
2021,06,25,16,33,33.80
2021,06,25,16,34,33.70
2021,06,25,16,35,33.50
2021,06,25,16,36,33.40
2021,06,25,16,37,33.40
2021,06,25,16,38,33.30
2021,06,25,16,39,33.30
2021,06,25,16,40,33.30
2021,06,25,16,41,33.20
2021,06,25,16,42,33.30
2021,06,25,16,43,33.30
2021,06,25,16,44,33.40
2021,06,25,16,45,33.50
2021,06,25,16,46,33.50
2021,06,25,16,47,33.60
2021,06,25,16,48,33.70
2021,06,25,16,49,33.60
2021,06,25,16,50,33.60
2021,06,25,16,51,33.70
2021,06,25,16,52,33.70
2021,06,25,16,53,33.60
2021,06,25,16,54,33.60
2021,06,25,16,55,33.60
2021,06,25,16,56,33.60
2021,06,25,16,57,33.60
2021,06,25,16,58,33.60
2021,06,25,16,59,33.70
2021,06,25,17,00,33.70
2021,06,25,17,01,33.70
2021,06,25,17,02,33.60
2021,06,25,17,03,33.60
2021,06,25,17,04,33.60
2021,06,25,17,05,33.60
2021,06,25,17,06,33.60
2021,06,25,17,07,33.70
2021,06,25,17,08,33.70
2021,06,25,17,09,33.70
2021,06,25,17,10,33.70
2021,06,25,17,11,33.70
2021,06,25,17,12,33.70
2021,06,25,17,13,33.70
2021,06,25,17,14,33.60
2021,06,25,17,15,33.60
2021,06,25,17,16,33.60
2021,06,25,17,17,33.70
2021,06,25,17,18,33.70
2021,06,25,17,19,33.70